Dewpoint
23 21 20 18 18 17 18 22 26 29 30 31 33 32 30 30 29 28 28 28 28 29 29 30 31 32 34 36 38 40 43 47 50 51 50 50 49 48 47 48 46 47 47 46
16 17 16 18 20 20 21 29 31 33 29 33 32 31 29 28 28 27 26 27 28 28 28 29 30 31 32 34 36 37 38 38 41 42 43 42 42 42 41 40 40 40 39 39
12 17 18 14 16 18 31 31 33 29 30 32 29 27 27 27 26 26 26 27 27 28 28 29 30 31 31 32 34 35 34 35 36 36 36 36 37 37 36 36 36 35 35 35
14 17 12 28 33 31 29 30 31 31 30 29 27 27 27 27 26 25 26 26 27 28 28 29 30 31 31 31 32 32 32 32 33 32 32 32 32 32 32 33 33 33 32 32
15 16 18 25 30 29 29 26 30 27 28 29 27 25 25 28 27 26 27 27 27 28 29 29 30 30 30 29 30 30 30 31 31 31 30 30 30 29 30 30 30 30 31 31
21 17 16 25 28 30 34 22 27 25 25 29 29 25 21 27 28 27 27 28 27 28 28 28 29 29 27 27 27 27 28 29 31 31 31 29 29 28 29 28 28 28 29 30
19 19 24 28 29 30 21 23 27 25 24 24 23 25 27 28 28 28 28 27 26 26 27 27 28 28 26 25 25 26 27 28 28 29 30 31 30 30 28 27 27 27 27 28
23 20 17 29 28 25 29 29 27 25 24 24 24 25 25 26 25 26 25 25 25 25 25 27 28 26 25 24 25 26 26 25 25 25 26 28 29 29 28 26 25 25 25 25
25 21 28 30 29 32 31 28 28 27 27 25 24 24 25 25 25 25 24 24 24 24 24 26 28 27 24 25 25 24 23 23 23 24 24 25 25 25 25 25 24 23 23 23
24 27 28 29 29 30 29 28 29 28 26 26 24 24 24 24 24 24 24 23 23 23 23 24 26 27 28 28 26 24 22 21 22 22 22 23 23 23 22 22 21 21 21 22
25 27 28 28 29 28 28 28 28 27 26 24 23 23 23 22 22 23 22 23 22 22 22 22 24 25 26 28 28 24 21 20 20 20 21 21 22 22 22 23 22 20 21 22
21 27 26 26 28 30 27 26 26 23 23 23 23 22 22 22 23 22 22 21 21 21 20 21 21 22 23 25 26 25 25 22 19 16 16 17 18 20 22 23 23 23 23 23
25 29 28 29 29 28 26 25 25 24 23 22 24 24 23 21 21 20 19 18 17 18 19 19 19 20 21 23 23 22 22 22 24 20 18 15 14 15 15 17 18 19 20 21
31 28 26 28 25 28 27 27 27 27 26 24 22 20 18 17 16 15 14 14 14 15 16 17 17 17 19 21 21 20 19 19 19 20 22 19 17 16 14 14 14 15 18 19
28 29 28 29 28 28 26 24 23 22 22 20 18 16 16 16 16 15 14 13 12 13 13 13 13 13 16 19 17 18 20 18 17 17 18 19 19 18 16 14 13 13 13 13
29 29 26 25 26 26 23 21 20 20 20 19 17 15 15 15 14 14 13 13 12 11 11 10 10 9 12 15 17 16 16 16 16 16 16 16 16 13 11 8 10 10 10 10
26 26 26 24 23 22 21 21 22 21 20 18 16 14 12 11 11 12 12 12 11 10 10 9 7 7 11 13 15 14 14 14 13 14 15 15 15 12 6 8 8 10 10 10
28 27 27 25 23 21 21 21 20 18 17 16 14 12 10 10 11 10 11 9 8 8 7 8 10 7 10 14 15 15 14 13 14 14 14 14 14 13 9 7 7 9 9 9
24 24 23 23 22 20 18 17 16 15 14 12 10 9 9 9 9 11 11 11 7 6 6 6 9 7 8 13 13 13 12 10 14 15 13 10 11 11 11 10 8 9 8 7
19 19 19 18 17 15 14 13 12 10 8 8 7 7 8 8 8 6 6 6 8 9 8 3 2 5 8 11 11 11 11 12 12 11 8 10 6 4 6 9 10 10 8 7
16 16 15 14 13 11 10 9 8 7 7 4 -1 -1 2 4 5 8 10 10 6 8 10 6 1 2 7 10 10 7 8 10 11 9 9 10 11 11 9 7 9 9 9 8
14 14 14 12 11 11 10 9 9 8 7 5 4 5 5 6 4 7 9 10 6 9 7 2 1 -1 4 10 9 7 8 7 7 8 7 7 8 9 9 9 9 9 7 6
16 14 12 11 9 9 9 7 5 4 8 10 11 10 10 11 11 8 8 9 10 10 7 1 -0 -1 -1 5 10 5 8 9 6 6 6 3 4 5 4 5 4 4 7 7
17 15 12 12 13 12 9 9 8 7 9 11 8 9 13 14 10 11 10 6 3 8 9 6 3 1 0 1 8 10 6 5 8 9 9 6 6 7 8 6 6 2 4 5
17 16 14 13 13 13 13 13 13 13 12 12 10 7 9 13 9 11 7 6 7 3 3 5 7 4 1 1 4 8 8 6 6 7 4 2 2 2 4 3 6 8 7 6
16 15 16 16 16 16 15 14 14 15 14 14 14 13 11 12 11 11 10 8 9 8 6 5 7 5 3 3 4 6 7 9 7 6 7 8 6 6 7 7 7 7 6 4
18 17 16 15 13 13 16 16 14 12 10 8 7 8 14 17 16 13 12 12 11 10 9 10 10 10 10 10 9 9 8 8 6 6 8 8 8 9 8 5 3 5 6 6
Wind_Speed
10 13 19 24 25 26 21 20 15 16 6 8 6 10 13 11 14 16 20 22 23 23 23 23 24 23 22 21 22 20 14 17 11 18 17 18 18 16 14 16 16 12 12 10
21 16 18 20 21 21 20 17 17 12 14 13 11 10 15 15 14 16 19 19 20 21 23 23 23 23 21 21 21 21 20 19 17 18 17 16 18 18 17 16 16 17 15 13
19 11 20 22 21 22 8 11 8 2 7 12 11 13 12 11 13 15 15 16 18 19 21 21 21 21 22 20 18 21 22 22 20 19 20 19 16 17 21 19 18 18 18 17
16 14 9 11 16 24 22 17 14 11 8 11 13 14 11 12 12 14 14 16 17 16 18 19 20 21 20 20 20 20 21 21 21 22 24 20 23 20 19 18 19 18 18 18
7 9 18 11 7 5 6 10 10 7 6 12 15 16 15 12 14 13 13 13 14 15 16 18 22 21 21 23 23 22 21 21 20 22 26 22 28 21 17 20 20 21 18 20
7 6 5 7 23 20 9 8 11 9 7 6 11 2 4 9 11 13 15 14 15 16 17 21 21 20 24 24 24 25 23 19 21 21 22 26 25 21 20 22 21 20 23 22
19 7 6 18 28 16 4 2 9 11 15 14 8 9 9 9 12 13 14 15 15 18 21 20 19 20 23 22 23 19 20 22 24 24 21 21 21 21 23 22 23 22 23 22
11 6 4 26 8 7 7 11 12 13 13 17 16 15 13 12 13 13 14 16 17 19 21 20 20 20 21 22 17 17 17 23 23 24 20 20 21 20 19 20 23 20 19 20
6 5 6 11 15 16 13 13 12 13 11 13 12 12 12 12 12 14 14 14 16 17 19 20 18 18 20 18 16 17 21 21 20 22 22 21 21 18 18 18 18 17 17 17
5 8 13 12 13 15 15 15 13 12 12 10 14 13 12 11 12 14 15 15 15 18 20 20 19 20 18 15 16 18 19 19 19 21 21 21 19 17 17 16 16 15 14 16
9 10 12 13 11 11 13 14 14 15 12 12 14 13 12 12 14 14 15 15 16 17 18 18 18 19 18 16 12 17 17 17 17 17 18 20 21 18 18 18 15 15 13 13
2 6 8 7 9 11 12 11 11 13 15 12 13 15 14 14 13 14 16 15 16 16 16 16 18 19 18 16 14 13 12 12 12 12 12 13 15 19 25 23 22 21 19 15
4 12 16 13 12 11 13 14 13 14 13 16 12 12 15 17 16 17 15 15 14 14 14 15 16 18 17 15 15 15 14 13 10 10 10 11 11 12 15 17 23 23 21 20
6 11 6 3 9 12 15 15 15 13 14 15 15 14 15 15 15 15 13 12 12 12 13 13 15 16 15 14 13 14 14 15 13 12 9 10 10 10 10 11 12 11 15 17
9 9 11 12 12 12 14 15 16 15 14 13 12 14 14 15 14 13 11 12 13 14 13 13 15 17 14 11 13 13 11 12 12 12 12 12 11 10 10 10 11 10 10 13
9 12 13 15 14 12 12 12 14 13 12 12 12 13 13 14 13 13 12 12 13 14 13 14 15 14 13 12 12 13 13 13 12 11 11 12 11 11 9 9 10 10 10 8
11 9 11 11 10 9 11 10 11 12 12 11 10 11 12 12 13 12 11 10 12 13 13 14 12 14 16 14 11 10 11 12 12 11 11 10 10 11 11 13 12 13 13 10
11 14 11 12 14 14 13 12 11 11 10 9 10 12 13 13 12 9 7 8 9 12 16 13 11 14 16 15 12 10 9 10 11 11 10 11 10 9 10 11 11 12 11 10
13 15 13 12 11 12 11 10 9 10 10 10 13 13 11 9 7 4 5 4 8 8 11 11 12 13 14 14 11 10 10 10 10 9 8 9 10 9 8 7 7 6 9 9
13 13 13 12 10 12 13 11 13 13 10 12 12 11 9 7 6 8 7 6 4 3 3 9 9 10 11 11 10 10 10 10 9 7 8 7 6 6 6 6 8 8 7 6
11 12 13 13 13 12 13 12 13 12 8 7 8 7 6 3 3 2 1 3 2 4 2 4 7 7 7 8 7 9 10 10 10 10 10 10 9 5 4 4 6 8 7 6
13 14 14 14 14 13 9 10 10 10 9 7 5 4 3 2 3 3 2 4 1 1 3 2 4 5 5 8 6 6 7 6 6 6 6 6 6 5 6 6 5 4 3 4
13 12 12 14 14 12 9 8 8 9 9 6 5 4 4 1 6 6 3 4 2 4 2 1 3 5 5 5 7 4 4 3 4 1 2 2 2 1 3 3 3 4 6 6
13 12 12 11 11 10 9 7 7 7 8 6 8 7 6 7 4 4 4 6 5 5 8 7 6 5 5 4 4 3 4 3 2 3 3 3 3 2 3 3 4 4 6 7
12 11 11 12 9 8 8 10 9 8 8 8 8 7 8 9 4 7 10 10 9 8 9 10 11 9 8 7 7 6 8 8 7 8 7 7 7 6 6 5 6 7 7 8
10 10 11 12 11 9 6 8 7 8 7 9 10 10 12 7 7 9 11 12 12 12 12 12 13 14 13 13 14 14 12 12 10 10 9 10 10 10 10 8 7 7 7 8
8 8 9 10 9 11 10 10 9 8 6 5 2 0 4 4 9 9 8 9 11 12 13 13 12 13 13 15 15 15 15 14 14 11 11 10 10 12 12 11 10 9 8 8
Wind_Direction
260 288 284 275 277 275 262 268 257 286 145 89 34 41 51 22 23 18 17 18 14 8 6 6 7 4 3 6 6 3 21 64 72 103 102 101 96 92 95 98 90 86 98 82
296 295 288 297 277 269 257 261 263 250 115 111 71 45 38 26 20 22 19 17 17 11 8 10 8 5 2 7 11 16 27 43 43 61 71 81 92 91 83 78 81 88 76 71
282 308 318 295 256 238 109 29 225 81 91 114 90 60 31 28 31 27 17 17 21 15 11 10 10 11 12 6 17 31 32 36 43 52 59 59 65 85 83 76 75 71 70 68
277 296 253 325 74 105 95 59 55 83 74 95 109 94 61 38 43 33 21 19 18 16 13 19 16 21 22 21 30 34 39 42 47 54 58 56 60 49 69 77 77 75 69 67
233 257 286 287 21 331 84 72 44 58 57 144 138 113 56 45 48 46 28 20 20 22 17 23 25 23 32 31 33 37 39 42 49 61 62 54 62 48 49 65 68 70 70 71
215 268 312 23 333 323 194 69 31 43 31 130 183 84 35 39 43 49 42 29 26 30 38 33 27 33 43 33 31 31 28 41 55 55 68 78 70 61 57 61 61 64 66 66
228 243 289 355 323 313 113 57 64 59 48 60 85 78 103 70 64 54 41 34 31 37 44 35 27 39 42 36 31 26 29 39 45 52 52 65 73 75 77 66 64 59 59 59
195 191 265 350 4 61 101 89 94 85 85 86 85 87 85 76 65 60 51 38 34 44 41 32 35 44 45 40 26 31 41 46 43 47 47 49 60 65 64 71 77 67 63 59
43 100 58 22 49 47 77 89 85 91 91 100 99 94 86 83 70 68 57 46 41 45 44 37 34 52 54 43 38 42 48 47 44 51 49 46 52 53 64 65 65 65 71 63
99 70 74 67 61 55 62 76 81 90 107 103 97 82 80 75 71 67 59 50 45 46 44 40 33 35 42 52 48 52 53 50 49 55 53 49 51 52 53 54 65 66 59 66
92 109 108 60 69 80 74 74 83 78 84 93 97 87 84 78 73 69 66 56 51 50 46 40 37 37 33 34 51 61 58 56 54 54 56 63 60 57 64 58 63 71 60 61
71 348 100 83 73 82 94 95 92 99 89 79 91 91 88 81 78 76 68 59 55 50 46 37 36 33 25 26 39 55 70 70 70 71 70 69 72 72 66 74 76 74 67 65
102 75 88 90 93 97 100 96 94 95 95 99 90 84 80 76 70 72 65 60 55 53 46 41 38 33 20 19 43 53 63 60 73 82 74 75 74 79 84 64 69 68 68 71
139 124 102 57 110 97 94 95 97 103 88 86 89 85 84 82 74 68 61 60 59 56 48 43 40 29 11 15 47 57 63 66 71 78 101 103 95 88 83 78 69 50 37 62
71 84 112 128 119 110 103 100 91 88 89 84 84 90 86 85 75 62 63 65 65 60 47 42 35 21 3 12 47 53 57 65 72 78 85 92 92 87 82 78 75 67 59 50
106 102 100 95 103 102 105 103 104 103 100 96 92 89 90 85 79 68 60 60 69 57 42 41 37 14 13 29 44 59 61 66 68 75 90 102 105 101 92 90 89 76 74 80
143 137 125 120 118 113 111 111 109 109 107 110 107 102 94 94 87 79 74 71 66 56 41 34 23 19 24 31 46 64 74 67 66 67 77 95 108 103 104 104 98 82 80 90
87 107 112 118 121 116 107 107 109 107 106 111 110 104 101 99 102 101 95 67 56 50 29 17 28 32 32 27 33 44 76 69 59 60 76 79 87 118 123 119 115 108 101 101
80 99 102 107 114 114 110 109 106 110 116 120 114 108 106 97 94 103 178 77 59 60 24 19 33 34 27 17 35 53 69 71 69 73 76 80 84 92 122 148 143 124 129 124
89 92 99 99 100 116 118 115 116 116 121 120 118 115 111 93 82 87 85 69 48 11 5 32 25 24 18 17 34 58 61 61 66 68 65 70 95 109 105 113 139 154 151 144
114 113 111 112 110 112 120 127 126 122 121 114 115 122 120 82 48 60 116 22 353 338 245 36 27 20 14 14 41 64 67 74 76 77 75 73 70 65 65 102 135 143 151 145
127 124 124 124 122 121 122 124 125 127 126 122 109 103 96 114 115 102 246 225 153 154 124 27 20 15 11 23 47 60 59 68 78 96 90 82 82 89 91 96 103 109 143 156
136 135 135 137 139 138 138 140 147 145 148 154 162 177 192 197 205 185 230 200 164 185 205 251 338 347 347 10 23 19 36 36 15 44 151 106 88 164 208 200 205 204 192 184
143 150 154 149 143 144 152 174 174 189 201 210 217 213 158 157 140 211 188 180 207 221 229 242 254 293 319 313 351 315 301 310 292 186 204 250 258 250 213 240 254 234 215 217
160 155 150 159 176 190 181 183 196 208 215 228 232 229 222 208 209 218 207 212 220 232 242 249 244 252 264 269 267 272 266 264 259 241 252 265 268 257 262 255 246 236 228 221
166 177 188 204 214 209 182 187 214 214 207 240 241 241 247 246 217 204 218 231 235 242 249 254 245 243 250 257 262 266 266 256 257 255 258 262 261 259 264 259 252 238 233 238
211 204 149 115 112 124 130 136 133 131 133 112 106 330 9 216 229 245 249 260 253 260 263 274 265 255 251 254 254 256 255 253 253 254 246 243 246 249 245 250 249 238 227 218